{"data":{"norad_id":68080,"intl_designator":"2026-042M","name":"STARLINK-37051","alt_names":[],"object_type":"PAYLOAD","status":"ACTIVE","operator":null,"country":"US","launch_date":"2026-03-04","launch_site_code":"AFETR","launch_vehicle":null,"mission":null,"orbit_class":"UNKNOWN","rcs_meters":null,"size_class":null,"mass_kg":null,"dimensions":null,"purposes":["comms"],"wikipedia_slug":null,"has_3d_model":false,"image_url":null,"decayed_at":null,"tle_current":{"epoch":"2026-09-19T18:22:56.669952Z","epoch_age_seconds":118954,"freshness":"FRESH","line1":"1 68080U 26042M   26262.76593368  .00016252  00000+0  49117-3 0  9991","line2":"2 68080  53.1615 351.2281 0000948  19.3150 340.7888 15.34394248 32104","mean_motion":15.34394248,"eccentricity":9.48e-5,"inclination_deg":53.1615,"raan_deg":351.2281,"arg_perigee_deg":19.315,"mean_anomaly_deg":340.7888,"bstar":0.00049117,"rev_number":3210,"period_min":93.848109889421,"perigee_km":462.0718231412,"apogee_km":463.36884969218,"semimajor_km":6840.8573364167,"source":"CELESTRAK","updated_at":"2026-09-20T09:00:43.779696Z"}}}